Wind_Speed
32 34 35 36 36 35 36 38 38 37 36 37 37 38 38 40 42 45 47 47 47 46 46 45 45 48 51 54 55 55 53 53 53 53 52 51 51 51 53 56 57 54 51 50 49 48 48 48 48 48 48 47 45 43 42 41 40 38 37 37 37 37 37 38 38 37 36 35 34 33 31 29 28 26 24 23 22 21 20 20 18 17 15 14 14 15
30 32 34 38 38 37 36 38 39 39 38 38 39 39 39 39 40 42 44 46 47 46 45 45 45 46 48 52 54 55 54 54 54 54 52 51 50 52 56 58 57 54 52 51 50 48 48 47 47 48 48 47 45 43 42 41 40 39 38 38 38 38 38 38 38 38 37 35 34 33 31 29 27 25 23 22 21 21 20 19 18 16 14 14 14 15
26 26 31 35 37 37 36 37 39 40 41 41 41 41 40 39 39 39 40 42 44 46 45 45 44 45 47 50 53 55 55 56 56 54 52 50 51 54 58 60 57 54 53 52 50 49 48 47 47 47 48 47 46 44 42 42 41 40 39 39 39 39 39 39 39 38 37 36 35 33 32 29 27 25 23 22 21 21 20 19 17 16 15 15 15 16
26 24 26 29 33 36 37 37 38 40 41 42 42 42 41 39 38 38 39 39 40 43 44 45 44 44 46 49 52 55 57 57 57 55 52 51 52 56 60 60 57 54 54 53 51 49 48 47 47 47 48 47 46 44 43 42 42 41 40 39 39 40 40 39 39 38 37 36 35 34 31 29 26 24 23 22 21 21 20 18 17 17 17 17 17 17
30 26 24 25 27 32 36 38 39 40 41 41 41 41 40 40 39 38 39 39 39 41 43 44 45 45 45 47 50 54 57 58 57 55 52 51 53 58 60 58 55 55 56 55 52 50 49 48 47 47 48 48 46 45 43 43 43 42 41 40 40 40 41 40 39 38 38 37 36 34 31 28 25 23 23 22 22 21 19 19 19 19 19 18 18 19
31 28 25 23 24 27 31 35 38 38 38 39 39 39 39 40 40 39 38 38 38 39 41 43 45 45 46 47 49 52 56 57 56 54 52 52 55 58 58 54 54 56 58 56 53 51 50 49 48 48 48 48 47 46 44 44 44 43 41 40 40 40 41 41 40 39 38 37 35 33 30 26 24 23 23 22 21 20 20 20 20 21 20 20 20 21
32 31 27 26 26 28 28 31 35 36 34 34 35 36 36 38 39 39 39 39 38 39 40 42 44 45 45 47 49 51 53 54 53 52 52 53 56 58 55 52 54 57 59 56 54 52 51 50 49 49 49 49 48 47 45 45 45 44 42 40 39 40 41 41 41 40 39 37 35 32 28 25 23 23 23 22 21 21 21 21 22 22 21 21 21 22
32 33 32 29 28 27 26 28 32 34 33 32 30 30 30 32 35 38 40 40 40 39 38 39 40 42 44 45 47 48 49 50 51 52 52 54 56 56 53 53 55 59 59 56 54 53 52 51 50 49 49 50 49 48 46 46 46 45 42 40 39 40 41 42 42 41 39 37 34 30 27 24 23 23 23 22 21 21 22 23 23 23 22 22 22 22
31 31 32 31 28 24 22 25 28 32 34 32 29 27 27 27 30 34 37 37 39 40 38 37 37 38 41 43 44 45 46 47 49 51 51 53 54 54 52 54 57 59 59 57 55 54 53 52 51 50 50 50 50 49 48 47 46 45 42 40 39 40 41 42 43 42 39 36 32 29 26 24 24 24 23 22 22 23 24 24 24 24 23 23 23 23
33 32 31 31 28 25 23 24 26 30 35 35 34 33 32 30 28 28 29 32 36 39 39 37 36 36 38 40 42 43 43 45 48 50 51 53 53 53 53 55 57 58 58 57 56 55 54 53 52 51 51 51 51 50 49 48 47 46 43 40 40 41 42 43 43 41 38 34 31 28 26 25 25 24 23 23 23 24 26 26 25 25 24 24 24 23
32 34 33 30 28 27 26 27 28 30 34 36 36 35 37 34 31 28 25 26 30 35 37 39 38 36 36 38 40 41 42 43 44 47 49 51 52 53 54 56 57 57 57 56 56 55 54 53 53 52 52 52 52 52 51 49 48 46 44 41 41 42 43 44 43 41 37 33 30 28 27 26 25 24 24 24 25 26 27 27 27 26 25 25 24 24
30 31 32 31 28 25 23 27 30 31 31 32 30 30 32 34 33 31 28 26 27 30 34 37 39 39 39 39 39 40 41 41 41 43 45 48 50 52 54 55 56 56 55 54 54 54 54 54 53 53 53 53 54 53 52 51 49 47 45 43 43 44 45 45 43 40 36 32 30 28 28 27 26 25 25 26 27 28 29 28 27 27 26 25 25 24
31 31 29 28 26 23 21 21 23 25 26 27 25 23 24 29 31 31 31 31 30 30 32 33 36 39 42 43 42 41 40 40 41 42 42 44 47 49 50 51 51 52 52 50 50 51 52 52 53 53 54 54 55 55 54 52 51 48 46 45 45 45 46 45 42 39 35 32 30 29 29 27 26 26 26 27 28 29 30 29 28 27 27 26 25 25
28 29 26 23 21 20 20 19 20 21 23 26 28 29 31 30 29 29 29 28 28 30 31 30 31 35 39 41 43 43 41 40 40 40 41 42 45 46 47 46 47 48 47 46 46 47 49 50 51 52 54 55 56 56 55 54 52 50 48 46 47 47 47 45 42 38 35 33 31 30 29 28 26 26 27 29 30 31 31 30 29 28 27 26 25 25
25 22 16 14 15 18 22 22 21 22 25 27 30 32 32 30 29 28 25 23 22 24 26 26 26 29 33 37 40 42 42 40 37 36 38 40 43 45 45 44 44 45 45 44 44 45 47 48 50 51 54 55 56 57 56 55 53 51 49 48 48 48 47 44 41 38 35 33 31 30 29 28 27 28 29 30 31 32 33 32 31 29 28 27 26 25
28 24 13 13 15 20 28 27 23 22 25 27 28 28 27 25 25 27 25 23 19 18 19 18 16 16 21 30 37 40 41 40 36 34 34 35 39 44 45 44 42 42 43 43 43 44 45 48 50 52 54 56 57 57 57 55 53 51 49 48 48 48 46 43 40 38 35 33 32 31 30 29 29 30 31 32 33 34 34 33 32 30 29 28 27 26
28 25 16 14 14 20 31 30 28 26 26 26 26 26 25 23 23 24 26 23 18 16 17 14 9 5 8 17 29 38 41 39 35 33 32 32 36 41 45 44 42 41 42 43 43 44 45 48 50 52 54 56 57 57 57 55 53 51 50 49 48 47 45 42 40 38 36 34 32 31 31 31 32 32 33 34 35 36 36 34 33 31 30 29 28 28
25 26 23 17 16 21 29 29 28 29 29 27 26 27 27 25 24 24 25 23 20 18 17 14 11 7 5 6 19 34 42 40 35 30 29 29 33 39 44 44 43 41 41 42 44 45 46 48 51 53 54 56 57 57 57 55 53 52 51 50 48 47 45 42 40 38 37 35 34 33 33 34 35 35 35 36 36 37 36 35 34 32 31 30 30 30
24 27 27 22 21 25 28 27 27 29 31 30 28 29 31 27 24 24 25 24 23 21 19 15 13 14 14 15 23 34 42 42 36 28 24 24 29 36 41 43 42 40 40 42 44 45 47 49 51 53 55 57 57 57 57 55 53 52 52 51 49 47 45 43 41 39 37 36 35 35 35 36 37 38 38 38 38 37 37 36 34 33 31 31 31 31
27 28 30 31 29 27 27 28 29 31 33 33 31 30 31 28 25 25 25 25 25 26 26 21 20 22 24 24 27 34 43 43 36 28 23 22 26 33 40 42 40 38 38 40 43 45 47 49 50 52 55 57 58 58 57 55 53 52 52 51 49 47 45 43 41 40 38 38 37 37 38 39 39 39 39 39 38 37 37 35 34 32 31 31 31 32
30 32 35 37 35 30 26 28 31 35 37 36 32 30 32 29 25 25 30 28 26 26 27 24 26 28 29 27 28 34 44 44 36 27 23 20 22 30 39 42 40 37 36 38 42 45 46 48 50 51 54 56 58 59 58 56 54 53 52 51 49 46 44 43 41 40 40 39 39 40 41 41 41 41 40 39 38 37 36 35 33 32 31 31 31 32
33 35 37 39 40 38 33 32 33 36 39 38 34 31 30 28 27 28 30 29 28 27 26 26 30 33 31 28 29 36 45 46 40 30 22 15 16 26 37 41 40 36 34 36 40 43 46 47 49 51 54 56 58 59 58 57 55 53 52 51 49 46 44 43 42 41 41 41 42 42 43 43 42 41 40 39 38 37 36 34 33 32 32 32 33 34
35 36 37 39 42 42 39 34 34 36 39 38 37 37 36 33 33 33 33 32 33 33 32 33 32 31 29 27 29 35 44 47 43 34 23 12 12 22 34 39 38 34 32 34 38 41 44 46 48 50 53 56 58 59 58 57 55 54 52 50 48 46 44 43 43 43 43 44 44 44 44 44 43 42 41 39 38 36 35 34 33 33 33 33 34 35
36 37 38 40 43 44 40 36 35 36 37 38 40 41 42 40 40 39 37 37 36 35 33 31 26 22 22 23 25 32 40 45 43 35 24 16 14 21 31 36 35 31 31 34 37 40 42 43 46 48 51 55 58 59 58 57 56 54 52 51 48 46 45 44 44 45 45 46 46 46 46 45 44 42 41 39 38 36 35 34 34 34 34 34 34 33
38 38 38 41 44 45 42 37 36 37 37 38 39 39 40 41 40 39 38 36 34 31 28 24 18 13 14 17 21 27 36 43 43 36 24 18 16 20 30 35 32 27 27 31 36 39 41 41 42 45 48 52 56 58 58 57 56 54 53 51 49 47 46 46 46 47 48 48 48 48 47 46 44 43 41 40 38 37 35 35 34 34 33 33 32 31
43 44 45 46 47 48 46 41 40 40 40 39 37 37 36 37 36 34 33 31 29 27 23 16 10 9 11 14 16 21 30 39 43 38 28 19 15 18 26 34 32 27 25 28 32 36 38 38 39 41 44 48 53 56 57 57 56 54 53 51 49 47 47 48 49 50 50 51 50 49 48 47 45 43 42 40 39 37 36 35 34 33 32 31 30 28
49 50 51 52 53 52 50 47 43 41 43 42 40 38 34 32 29 26 23 24 26 25 19 11 8 8 9 11 14 19 26 34 39 39 33 23 16 16 23 31 32 28 24 26 30 34 35 36 36 38 41 45 50 53 55 56 55 54 52 51 49 48 48 50 51 52 52 52 51 50 49 47 45 44 42 41 39 37 36 34 33 32 31 30 28 27
49 50 50 51 52 53 52 48 44 42 43 44 44 42 37 31 25 20 19 22 26 26 19 15 11 8 7 7 12 19 24 30 36 39 37 26 17 16 23 30 32 29 24 23 27 31 32 32 33 36 40 43 47 50 53 54 54 53 52 50 49 49 50 52 53 53 54 53 52 50 49 47 46 44 43 41 39 37 35 34 33 31 30 29 28 26
43 45 45 46 49 51 51 47 44 42 43 44 46 46 42 35 28 24 22 24 26 24 18 14 11 9 8 8 11 16 20 26 34 39 38 27 17 16 24 30 31 29 25 21 20 22 24 26 29 33 36 41 44 47 50 51 52 51 51 50 49 50 51 53 54 55 54 54 52 50 49 47 46 44 42 41 39 37 35 34 33 31 30 29 28 27
37 38 39 42 44 47 50 46 42 41 43 45 47 47 45 39 34 31 28 26 26 24 18 15 13 13 10 9 8 8 12 22 33 39 39 27 17 16 23 27 30 30 27 19 12 8 11 19 26 31 33 37 41 44 47 48 49 49 49 49 49 50 52 54 55 55 54 53 52 50 48 47 46 44 42 41 39 37 36 35 33 32 31 30 29 28
36 36 37 38 39 42 46 45 42 40 43 46 48 49 46 41 37 35 33 31 30 29 25 20 18 17 15 9 6 5 6 19 32 40 40 29 19 17 24 25 27 31 33 25 11 3 5 10 20 29 32 34 37 40 44 46 47 47 47 48 48 49 51 52 53 53 53 52 50 49 48 47 46 44 42 41 39 38 36 35 35 34 33 31 30 29
35 34 35 35 34 36 41 41 40 39 40 44 47 48 46 43 41 39 38 37 35 34 33 28 24 22 22 14 10 9 9 20 33 41 41 32 21 19 26 26 25 28 34 33 24 14 8 5 13 24 30 32 34 37 41 44 45 45 46 46 46 46 48 49 50 50 50 49 48 48 47 46 45 44 42 41 39 38 37 36 36 35 34 32 31 30
34 33 33 33 32 33 37 38 37 36 38 39 41 43 43 43 43 42 40 40 39 39 38 34 28 24 24 22 21 20 21 25 35 44 44 34 22 17 23 25 25 26 28 31 31 26 16 10 12 18 24 29 32 35 38 42 44 45 46 45 44 44 46 47 48 47 47 46 45 45 45 45 44 43 42 40 39 38 37 37 36 35 34 33 32 31
33 33 32 33 32 32 35 37 37 36 36 36 37 39 40 41 42 42 42 42 41 41 41 39 34 28 24 22 22 24 26 28 37 47 48 36 24 19 23 25 26 26 26 25 24 21 16 17 17 16 17 23 29 33 36 39 41 44 45 45 45 44 46 47 47 46 45 45 44 43 43 43 42 41 41 40 39 38 37 37 36 35 34 33 32 32
31 31 32 32 31 30 33 35 37 38 37 35 36 38 39 40 41 41 41 42 42 42 43 41 38 34 31 27 22 20 23 27 38 47 49 40 29 24 25 26 28 29 27 25 20 14 11 16 21 21 17 18 22 28 33 37 40 42 44 45 45 45 46 47 47 46 45 44 44 43 43 43 42 41 41 40 39 38 37 36 35 34 33 32 31 31
28 29 30 30 29 28 30 34 37 39 39 36 36 38 40 40 40 40 40 41 41 42 43 42 41 39 38 37 34 30 27 30 40 48 49 43 35 29 26 27 30 32 30 28 23 16 11 14 21 25 22 17 16 20 27 34 38 40 41 43 44 45 46 47 47 46 45 44 44 44 44 44 43 42 41 40 39 38 37 36 35 33 32 31 30 29
26 27 28 28 28 26 28 32 35 37 38 36 36 38 41 41 41 41 41 42 42 42 43 43 42 41 41 41 40 37 34 35 42 49 51 46 39 33 30 29 32 34 33 30 26 21 15 13 15 19 21 19 16 16 22 30 35 36 38 40 42 43 44 46 47 46 45 44 44 45 44 45 44 43 41 40 39 37 36 35 34 33 31 30 28 27
23 24 26 27 27 26 28 32 34 36 37 36 36 38 41 42 42 42 41 43 44 44 41 42 42 40 41 41 40 38 36 38 44 50 53 49 43 38 34 31 32 35 36 35 32 28 22 13 11 11 11 17 19 21 24 28 30 32 34 39 41 43 43 45 45 45 44 44 44 45 45 45 44 43 41 40 39 37 36 34 34 33 32 30 28 26
20 22 24 26 26 26 27 30 33 35 37 37 38 39 41 42 43 43 42 43 45 46 44 44 42 39 39 40 39 38 36 40 45 51 54 52 47 40 36 32 32 34 36 36 35 33 28 21 16 12 9 12 16 20 26 29 30 31 33 36 39 41 43 44 44 44 44 43 43 43 43 44 44 43 41 41 40 39 37 35 34 33 33 31 29 26
20 21 24 26 27 27 28 30 33 35 36 37 38 39 40 39 40 41 41 42 43 45 45 45 42 39 37 37 38 37 37 41 46 51 55 55 51 44 38 35 34 34 35 35 34 33 32 30 27 26 25 19 17 19 22 26 30 32 34 32 29 32 40 43 44 44 44 43 42 42 42 43 43 43 42 42 41 40 39 37 36 35 34 33 31 28
21 22 24 27 28 29 31 31 33 35 36 36 36 37 37 36 35 36 37 37 39 41 41 41 39 36 33 34 35 36 37 40 45 51 55 57 54 47 41 37 37 37 36 35 34 34 34 32 30 29 29 27 26 26 26 27 31 34 36 31 29 33 41 44 44 44 43 43 43 43 43 43 43 43 42 42 42 41 41 39 38 36 34 33 32 30
23 23 25 26 27 28 30 30 32 34 36 35 34 33 34 34 33 32 32 31 32 34 35 35 32 29 27 27 29 32 35 39 44 50 54 57 54 49 43 40 39 38 36 34 33 33 34 32 30 28 28 28 28 26 25 27 31 34 35 32 33 35 38 41 44 45 43 42 42 43 43 43 43 43 43 42 42 41 40 39 38 36 35 33 31 29
24 26 27 26 27 28 29 29 30 32 33 32 32 32 34 34 34 33 31 29 29 30 31 31 30 26 22 20 21 26 31 36 42 48 52 56 55 50 44 42 41 41 39 35 32 30 31 31 30 29 30 32 32 30 26 25 28 32 33 34 35 30 22 30 39 44 44 43 43 43 43 43 43 43 43 43 42 41 39 38 37 35 34 33 31 28
26 27 27 26 27 29 29 27 28 30 31 30 30 31 33 35 35 34 32 29 29 29 29 28 28 25 21 18 18 20 25 31 38 44 49 53 54 50 44 42 43 44 43 39 35 32 28 27 27 29 33 34 34 33 30 28 28 29 31 36 38 34 27 31 39 44 43 43 43 43 44 44 44 44 43 42 41 40 39 38 36 35 33 31 29 27
25 27 27 26 27 29 29 27 28 30 31 32 31 31 32 34 36 35 32 29 28 28 27 27 25 21 15 15 17 19 21 25 30 36 42 47 49 47 43 41 42 43 43 42 40 37 32 28 26 29 33 34 33 32 31 31 30 29 30 34 35 34 33 39 44 45 43 43 42 43 44 45 45 43 41 39 39 38 38 38 36 35 32 30 27 25
21 23 24 24 25 26 26 27 29 30 30 30 30 31 32 34 35 34 32 30 28 26 26 27 23 16 9 11 16 18 18 19 22 27 32 37 39 39 37 37 38 40 39 39 39 39 38 35 33 32 32 30 28 29 31 32 32 30 30 32 32 31 32 36 41 44 45 44 44 44 45 46 45 42 38 37 36 37 37 37 35 34 31 28 26 24
20 21 21 20 22 23 25 28 29 29 28 28 29 30 31 33 33 32 31 30 29 27 26 26 24 19 14 15 17 17 17 17 19 23 26 29 31 30 30 31 33 34 34 33 32 33 35 37 39 38 35 29 24 23 26 30 31 31 32 33 33 32 31 33 37 41 44 45 45 46 46 45 43 39 37 36 35 34 34 34 33 31 29 27 25 22
19 19 19 16 18 21 23 26 27 27 26 26 28 30 30 32 33 31 29 29 29 27 25 23 21 19 18 19 21 21 21 20 21 23 25 27 29 29 29 29 29 29 29 28 28 28 29 31 34 36 36 33 28 25 25 27 29 30 33 35 35 34 32 33 35 38 41 44 46 47 47 45 41 38 37 34 31 30 29 29 28 27 25 24 22 21
17 18 18 15 12 16 20 24 26 26 25 25 25 27 29 31 33 32 30 29 28 27 25 22 19 16 14 16 20 24 25 24 24 24 25 27 29 31 32 32 31 30 29 28 29 29 29 28 28 27 28 30 32 32 30 29 29 30 32 34 35 34 33 33 35 37 39 41 43 45 45 43 42 42 40 34 29 26 26 26 25 23 22 21 20 19
17 17 18 17 11 11 18 24 25 24 24 24 24 24 26 27 29 30 30 30 29 27 25 24 21 16 12 14 19 23 24 24 24 24 24 26 30 32 32 32 32 31 28 27 27 27 25 22 19 19 20 22 27 30 31 31 30 30 30 30 32 33 33 33 35 37 39 40 41 42 41 40 40 41 39 34 29 26 24 24 23 22 21 20 19 18
17 18 18 18 13 8 14 21 23 23 24 24 24 24 24 24 24 25 27 28 27 26 26 25 23 19 14 16 20 23 24 24 24 23 24 26 29 30 31 32 32 29 23 18 16 15 12 10 9 10 10 15 20 25 29 31 32 30 27 26 29 32 32 33 35 37 39 40 40 40 39 37 36 36 36 33 28 24 22 21 22 23 22 21 20 19
Wind_Direction
254 253 252 250 246 242 240 239 236 235 234 235 236 237 238 235 230 227 225 223 221 219 219 219 220 221 221 221 222 222 221 220 219 218 216 213 212 218 228 235 235 233 231 231 232 232 231 229 228 226 224 222 220 218 217 217 217 216 216 217 217 217 218 219 220 221 221 222 224 226 229 231 234 237 240 244 246 245 243 240 236 231 223 216 209 202
254 253 251 249 245 241 239 239 237 235 233 233 233 234 236 236 233 228 225 223 221 220 219 219 219 219 219 219 219 220 221 221 220 219 215 212 211 217 227 234 234 232 231 231 231 231 230 229 227 226 224 221 218 217 216 216 216 215 215 216 217 217 218 219 220 221 221 222 224 226 228 231 233 236 239 241 241 239 236 234 229 221 211 204 197 192
252 251 248 246 242 238 236 237 237 235 234 232 232 232 232 234 233 230 226 223 221 220 220 219 219 219 218 219 219 219 219 220 219 217 214 211 212 218 227 232 233 232 231 230 230 230 229 228 227 225 223 220 217 215 215 215 215 214 214 216 217 217 218 218 219 221 221 223 224 226 228 230 233 235 237 237 235 232 229 227 220 209 200 194 189 185
250 247 244 242 239 235 234 234 235 235 234 233 231 230 229 230 231 231 227 224 221 220 219 219 218 218 218 219 220 220 218 217 216 214 212 212 214 220 228 231 233 233 232 230 229 229 228 227 226 224 222 219 216 214 214 214 214 214 214 216 217 218 218 219 220 221 222 223 225 226 228 230 232 234 234 231 228 226 224 219 209 199 191 187 184 183
248 245 241 238 237 235 234 233 233 234 234 233 232 230 228 227 228 230 229 226 222 220 218 218 218 217 217 217 218 218 216 214 212 211 210 211 217 223 229 232 233 233 232 230 228 228 227 226 225 223 221 218 215 213 213 213 214 213 214 216 217 218 219 220 221 222 223 224 225 226 227 229 230 231 228 225 222 220 217 210 200 191 185 183 182 181
245 243 239 236 237 237 234 231 231 232 232 233 235 234 229 226 226 227 228 227 224 220 218 217 217 216 216 215 215 215 214 212 210 208 208 211 218 225 230 233 234 233 231 229 227 226 226 226 224 222 220 217 214 212 212 213 213 213 214 216 218 219 219 220 221 222 223 223 224 225 227 228 227 225 221 218 217 215 211 201 192 186 183 181 180 180
246 244 241 238 239 239 236 232 229 229 229 234 237 236 231 227 226 226 226 226 224 221 219 217 216 216 216 215 215 214 213 211 209 207 208 212 220 227 231 233 233 232 230 228 226 226 226 225 223 221 219 216 213 211 211 212 213 213 214 216 218 219 220 221 222 222 222 223 223 225 225 224 221 218 214 213 212 210 204 195 187 183 182 180 179 180
246 245 242 239 239 239 237 232 228 227 227 230 233 232 229 227 226 226 226 225 224 223 221 219 217 215 215 215 214 213 212 210 207 207 210 216 222 228 231 233 232 231 229 227 226 226 225 224 223 220 218 215 213 211 210 211 212 213 214 217 218 220 220 221 221 221 221 221 222 223 222 219 214 210 208 208 207 204 197 190 185 184 183 180 180 181
243 243 241 238 235 234 234 232 229 226 225 226 226 226 226 226 225 225 224 224 224 224 222 220 217 216 215 214 214 213 212 209 207 208 212 218 223 228 230 231 230 229 227 227 226 226 225 224 222 219 217 214 212 211 210 211 212 213 214 217 219 220 220 220 220 219 219 220 221 220 217 211 206 203 203 203 202 199 193 188 185 184 183 181 181 181
239 240 239 236 233 230 230 233 230 227 226 227 228 228 229 225 222 220 219 221 221 221 219 218 217 216 215 215 214 213 212 210 210 211 215 219 223 226 227 227 226 226 226 226 226 225 224 223 221 218 216 214 212 210 210 210 211 212 214 216 218 219 220 219 218 218 218 218 217 215 210 204 201 200 200 200 198 194 190 186 185 185 183 182 182 183
237 237 237 236 233 230 229 231 232 229 225 228 228 229 229 225 220 217 215 216 217 216 215 215 215 214 214 214 213 213 212 211 212 214 217 220 223 224 224 224 223 224 225 226 226 225 224 222 220 218 215 213 211 210 209 209 210 211 213 215 217 218 218 217 216 216 215 215 213 209 204 200 198 198 198 197 194 191 188 185 184 184 183 183 183 183
234 235 236 236 234 231 227 229 231 228 222 222 223 225 226 223 219 215 213 214 213 210 210 212 213 213 213 212 212 211 211 210 211 213 215 218 220 221 221 221 221 222 224 225 225 225 224 222 220 217 214 212 211 210 209 208 209 210 212 214 216 217 216 215 214 213 212 210 207 203 199 198 198 198 197 195 191 189 186 185 184 184 183 184 184 184
232 232 233 233 232 228 222 220 220 219 216 217 219 221 222 220 216 213 213 214 213 210 208 208 210 212 213 212 211 210 209 209 209 210 211 213 214 215 215 216 216 218 220 221 222 222 221 220 218 216 214 211 210 209 208 208 207 208 210 212 214 215 214 213 211 210 209 206 203 199 198 198 198 197 195 192 189 187 185 184 184 184 185 185 185 184
233 229 229 229 227 221 214 209 210 213 216 216 218 220 220 217 212 210 212 214 214 211 207 205 207 209 210 210 210 209 207 207 207 207 208 209 210 210 210 210 211 213 215 216 216 217 217 216 214 213 212 210 209 208 208 207 206 207 208 210 212 212 212 210 209 208 208 206 201 198 198 198 198 196 193 190 188 186 185 184 185 185 186 186 186 186
238 228 220 219 221 219 216 211 210 212 215 215 215 216 216 212 207 205 207 209 208 204 200 202 205 206 206 207 208 207 206 204 203 202 203 206 208 208 207 206 207 209 211 212 212 213 213 211 209 208 208 207 207 206 206 205 204 205 206 208 210 210 209 208 208 208 209 205 200 197 197 197 195 193 191 189 188 186 185 185 185 186 186 187 187 188
246 236 220 215 218 222 223 218 213 210 210 209 208 209 211 207 202 200 201 204 198 189 188 193 198 203 207 207 205 203 203 202 200 199 199 201 204 206 205 202 202 205 207 209 209 209 209 208 206 205 204 204 205 205 204 203 203 204 205 206 207 208 207 207 207 209 209 204 200 197 196 194 192 191 190 190 189 187 186 186 186 186 187 187 188 189
255 245 232 219 218 223 223 219 214 211 208 205 203 204 206 205 201 198 199 198 191 185 190 193 190 190 210 209 204 200 199 198 198 197 196 197 200 202 202 200 199 200 203 206 207 207 206 204 203 203 203 203 203 203 203 202 202 203 205 206 207 206 206 206 207 209 208 203 198 196 194 191 190 189 190 191 190 188 187 187 187 188 188 188 188 189
263 252 241 229 221 220 219 215 211 209 209 206 204 204 205 206 203 200 199 197 194 192 195 197 198 196 190 206 206 201 195 195 195 195 193 194 196 198 199 198 198 199 201 203 205 205 204 203 202 201 201 201 202 202 202 202 202 204 206 207 206 206 205 206 207 207 205 200 197 194 192 190 189 189 191 191 191 189 188 188 189 190 190 190 190 189
269 260 248 237 225 218 215 211 207 206 208 208 206 206 209 207 204 201 200 199 198 196 197 197 203 207 207 210 207 200 193 192 192 192 190 191 191 193 194 195 196 198 199 201 203 203 203 202 202 201 201 201 201 201 202 202 203 204 207 207 206 205 205 205 206 204 201 197 195 193 191 189 189 189 191 192 192 191 190 190 191 192 192 192 192 192
274 267 255 243 230 220 214 210 206 203 204 206 205 205 208 208 203 200 201 201 201 200 200 200 204 209 210 209 203 197 192 190 189 189 191 189 188 189 191 192 193 195 197 200 201 202 201 201 200 200 200 200 201 201 201 202 202 204 206 206 206 205 205 205 204 201 198 195 193 191 190 189 189 190 191 192 192 192 192 193 193 194 195 195 196 196
273 269 261 249 238 226 216 210 206 204 204 204 203 205 209 207 203 203 209 206 203 202 203 205 208 209 209 206 200 194 191 187 186 189 192 188 187 188 189 190 191 193 195 198 200 200 199 199 199 199 199 200 200 201 201 202 202 202 204 205 205 204 203 203 201 199 196 193 192 190 190 190 190 191 191 192 192 193 193 194 194 196 197 199 200 201
270 268 264 254 243 233 221 212 205 203 203 201 200 202 206 205 206 208 209 205 203 203 203 207 210 210 207 203 198 194 190 187 188 190 190 186 186 188 188 188 189 191 194 196 198 198 198 197 198 198 199 199 199 200 201 201 201 201 202 203 203 202 202 201 199 196 194 192 191 190 190 190 191 191 192 192 192 192 193 193 194 196 198 200 201 202
270 270 266 257 247 237 226 214 205 201 200 198 200 203 206 206 208 210 208 206 206 206 207 208 209 207 205 201 195 191 189 189 189 189 187 186 187 188 187 187 187 189 192 194 195 195 196 196 197 198 198 199 200 200 200 200 201 201 201 202 202 201 200 199 197 195 194 192 191 190 190 190 191 191 192 192 192 192 192 192 193 195 197 199 200 200
273 272 269 261 250 240 229 215 204 200 199 199 202 207 210 210 210 210 208 207 206 206 205 204 201 197 196 192 186 185 188 188 188 188 189 192 189 186 185 185 185 186 190 192 192 192 193 194 196 197 197 198 199 199 199 199 200 201 201 202 202 200 198 197 196 195 194 193 192 191 191 191 191 191 191 191 191 191 191 191 193 194 196 197 198 199
272 273 271 265 255 243 231 216 204 198 198 198 201 205 208 209 209 208 206 203 201 197 193 188 185 183 179 173 175 182 188 188 187 188 191 193 185 180 183 184 184 184 185 187 189 190 190 192 194 196 196 197 198 199 199 199 199 200 200 202 202 200 198 196 195 195 194 193 192 191 191 191 191 191 191 191 191 190 190 191 193 194 196 198 199 201
270 271 271 269 261 249 235 224 210 201 198 196 197 199 202 203 202 200 198 194 189 183 177 175 177 178 171 169 176 185 188 188 188 189 191 188 176 173 181 184 184 182 179 181 184 186 188 190 193 194 194 194 196 197 198 199 199 199 199 200 201 199 196 195 195 194 193 192 192 191 190 190 190 190 190 190 190 190 191 192 194 196 198 199 201 203
272 272 272 271 266 256 241 231 218 205 198 195 194 193 193 192 191 190 188 184 179 175 173 173 176 174 171 176 184 187 186 187 188 190 191 185 174 171 179 182 182 179 173 174 179 183 186 189 191 192 192 193 194 195 197 198 198 198 198 199 199 197 195 194 194 193 192 192 191 190 189 189 188 189 189 189 190 190 191 193 195 196 198 198 198 199
275 275 274 273 268 258 245 231 218 206 198 195 194 192 189 185 185 188 189 182 176 174 179 181 178 173 173 183 186 183 181 185 189 191 190 185 179 177 178 179 179 175 167 166 173 180 184 187 190 191 191 191 192 193 195 197 197 197 198 199 198 195 193 193 192 192 191 191 190 189 188 188 188 188 189 189 190 190 191 193 194 195 195 195 194 193
278 278 277 275 268 257 243 229 216 206 199 196 194 193 191 188 189 193 190 180 176 178 185 186 183 181 180 180 176 175 180 187 190 190 188 185 182 179 174 174 175 171 163 157 161 172 182 187 188 188 189 190 190 190 192 193 194 195 196 198 197 194 192 192 192 191 190 190 189 188 187 187 187 188 189 189 189 190 191 192 192 192 192 192 191 190
281 282 282 277 267 253 238 226 214 205 200 198 197 196 194 193 194 196 193 185 182 184 188 189 188 187 181 168 159 168 187 192 192 189 186 185 183 175 168 170 172 170 164 154 144 156 188 191 188 185 186 187 187 187 188 189 189 189 189 191 192 191 191 191 191 190 190 189 188 187 187 187 187 188 188 188 188 189 190 190 190 190 189 189 189 188
281 283 283 278 264 246 231 222 214 206 201 200 199 199 198 197 197 198 196 192 191 192 194 194 192 188 179 165 161 176 190 194 192 189 186 187 183 171 167 169 172 172 171 168 157 134 191 198 193 187 183 182 184 185 185 185 184 183 183 183 185 187 189 189 189 189 189 188 187 186 186 186 187 187 187 187 187 188 189 190 190 189 188 187 186 186
277 279 279 276 262 242 225 217 211 205 201 199 198 198 199 199 199 199 198 197 196 198 201 201 197 190 185 182 184 189 191 192 190 188 187 188 184 172 170 171 172 174 177 179 180 178 172 184 196 191 181 179 181 183 184 183 182 181 179 179 181 184 186 187 187 187 186 186 185 185 185 185 186 186 186 186 187 188 189 189 190 189 188 186 186 186
273 274 275 274 262 241 222 212 207 203 198 196 195 196 197 198 198 199 199 198 198 200 203 203 199 194 191 192 196 200 198 192 189 188 186 186 181 172 172 172 173 175 179 183 187 189 185 178 181 184 182 180 179 180 182 182 181 180 179 178 179 182 184 185 185 184 183 183 183 183 184 185 185 185 186 186 187 188 189 190 190 190 188 187 187 186
270 270 271 270 260 241 221 210 204 200 197 195 194 194 195 196 197 197 198 198 198 199 202 203 200 195 192 193 198 201 200 191 188 187 185 184 179 171 171 173 174 174 176 182 187 187 182 171 169 173 181 183 181 179 181 181 181 180 179 178 179 180 181 182 182 181 181 180 180 180 182 183 184 184 186 186 187 188 189 190 190 191 190 190 188 187
267 267 267 265 256 240 220 208 202 200 198 195 194 194 194 194 195 196 197 197 198 200 202 203 201 196 193 193 196 199 197 189 187 186 184 184 181 175 173 176 177 176 177 180 181 176 164 162 167 171 173 180 182 180 180 181 181 180 179 179 179 179 180 181 181 180 179 178 177 177 179 180 181 182 184 186 187 188 189 190 190 191 191 192 191 190
264 263 263 261 252 236 218 206 201 200 199 196 193 193 193 194 194 195 197 198 199 200 202 203 202 199 197 196 197 198 193 187 185 185 185 185 183 179 177 180 180 179 178 180 180 174 160 160 166 170 170 174 180 182 181 180 179 178 178 178 179 179 180 181 180 179 178 177 176 176 177 178 179 181 183 185 187 187 188 189 190 190 191 192 193 194
259 258 258 256 249 233 215 203 199 197 197 194 192 191 192 193 194 196 198 199 200 201 201 202 203 202 200 199 199 198 194 187 184 184 185 186 185 183 182 183 182 180 180 181 180 175 163 158 162 168 172 176 178 179 178 175 174 175 175 176 177 178 179 180 180 179 177 176 176 176 176 177 178 179 181 183 184 185 187 188 189 189 190 190 192 195
254 253 253 252 246 232 216 203 196 194 193 191 189 188 190 192 194 196 198 200 200 200 200 201 202 203 202 200 199 198 194 188 184 184 185 186 187 186 185 182 182 183 184 184 182 177 168 160 158 165 174 180 180 176 172 170 170 171 173 175 176 177 177 178 179 179 178 177 176 176 176 177 177 177 177 178 179 180 182 184 187 188 188 189 190 193
251 250 250 248 243 232 216 202 194 190 189 188 187 187 188 191 193 196 198 199 200 200 200 200 201 201 200 198 197 196 194 190 187 186 185 186 187 186 184 181 182 184 186 185 183 180 176 173 171 169 168 175 176 173 172 171 171 170 169 170 172 175 177 178 178 178 178 176 175 174 174 175 175 175 174 174 175 175 177 180 184 186 187 187 188 190
254 250 247 245 240 230 216 201 191 187 185 185 185 185 186 188 191 193 195 197 198 199 199 200 200 199 197 195 194 194 193 192 190 188 187 187 187 186 184 182 181 182 183 184 183 182 181 182 182 180 178 174 172 171 171 173 172 168 164 163 166 171 175 177 178 178 177 176 174 172 172 173 173 173 172 173 174 175 177 180 182 185 186 186 186 187
263 254 248 243 237 229 216 201 189 183 181 180 180 181 183 185 186 188 189 190 192 194 195 195 195 194 192 191 191 192 193 192 191 189 188 188 187 186 185 183 182 181 181 181 182 183 185 185 183 181 178 174 170 169 171 173 171 167 165 166 167 169 171 174 176 176 176 175 174 173 171 171 171 171 172 173 175 178 181 182 184 185 187 188 189 189
270 262 251 242 233 225 215 200 186 178 176 175 176 178 180 181 181 181 181 181 183 186 187 186 184 181 179 182 186 190 192 192 191 190 189 189 188 186 185 184 182 181 179 179 181 184 186 185 182 179 175 171 168 168 170 170 169 169 169 168 165 162 163 168 173 174 173 173 173 172 170 169 169 169 171 172 175 179 183 185 186 187 188 190 192 195
273 268 257 243 228 217 209 194 181 173 172 172 175 178 179 180 179 178 178 178 179 180 181 180 177 171 165 163 171 180 186 189 190 190 190 189 188 187 186 185 183 181 180 179 180 183 185 184 182 178 175 170 168 168 167 165 166 169 171 167 160 154 152 161 167 170 171 171 171 171 170 169 168 169 170 172 175 179 183 185 187 188 189 191 194 197
276 272 263 245 226 214 204 187 175 171 170 172 174 176 178 178 178 177 177 178 178 178 177 176 173 168 161 157 158 165 174 181 186 188 189 189 188 187 186 186 185 183 181 180 181 181 180 180 179 177 173 170 168 167 166 165 166 167 168 166 163 162 164 164 164 165 167 168 169 169 169 169 168 168 169 171 174 178 182 185 188 190 191 192 195 198
279 275 266 246 227 213 202 185 173 170 171 173 174 174 175 176 176 177 177 177 176 175 174 172 170 167 163 159 157 158 162 170 177 182 186 187 187 187 187 186 185 184 183 183 182 181 178 176 173 171 169 167 167 167 166 166 165 165 165 165 166 166 166 164 163 164 164 165 166 168 169 169 168 166 165 167 172 177 182 186 189 190 192 193 195 198
285 281 268 245 223 206 188 176 170 169 170 172 173 173 173 174 175 176 177 176 174 173 173 171 171 170 166 161 159 158 155 158 165 173 178 182 184 185 185 185 184 183 182 183 183 182 180 176 170 164 162 162 164 165 166 165 164 163 162 163 163 161 159 159 161 163 164 164 165 167 168 168 167 164 162 164 169 175 181 186 189 190 192 193 195 198
297 292 275 244 216 192 175 168 166 168 169 171 172 172 172 173 174 175 176 175 174 172 171 172 174 176 174 168 163 160 158 157 157 161 166 171 175 178 178 177 177 177 178 178 179 178 177 174 169 164 160 159 159 162 164 164 163 161 160 159 157 155 153 156 159 162 164 165 165 166 167 166 163 161 161 163 167 172 178 183 187 190 191 192 194 196
307 305 291 255 212 183 167 163 164 166 168 170 171 171 171 172 173 173 174 173 172 171 170 173 176 177 174 170 167 165 162 161 159 158 157 158 160 162 162 162 162 163 163 163 162 161 160 161 161 162 163 163 162 162 162 162 162 161 159 157 155 153 153 156 159 161 163 164 165 165 165 164 162 160 160 160 161 166 171 177 182 185 188 190 192 194
314 316 310 285 230 184 166 162 163 164 167 166 167 169 170 171 172 172 172 172 171 171 172 174 175 173 169 168 166 165 163 161 159 157 154 152 151 151 150 149 147 144 141 140 140 140 141 143 148 154 161 166 166 164 161 160 160 159 158 156 155 154 153 155 158 160 161 162 162 163 164 164 165 164 161 156 154 157 164 169 174 178 182 186 189 191
324 328 326 312 277 206 173 164 161 162 163 162 162 163 166 168 170 171 171 171 171 172 173 173 172 169 164 163 163 163 162 160 158 156 155 153 150 148 145 143 140 135 128 125 125 126 126 125 129 138 149 160 164 164 160 157 155 154 154 155 155 153 152 153 156 159 160 159 159 160 161 162 163 163 161 155 152 152 156 162 167 172 176 180 183 186
335 339 339 332 314 256 189 169 161 159 159 159 159 159 160 163 165 167 168 169 171 172 173 171 169 167 163 162 163 163 162 160 159 158 157 155 152 150 148 146 144 140 135 128 127 127 120 105 99 105 121 145 158 163 162 156 152 150 149 151 152 152 151 151 154 156 157 157 157 158 159 159 159 159 158 155 150 148 151 157 164 169 172 175 177 180
Height
695 695 696 697 697 697 695 695 696 697 696 696 697 698 698 698 697 697 697 698 698 699 700 701 702 702 703 704 705 706 708 710 712 714 716 718 722 726 729 729 730 732 735 737 738 740 741 743 745 747 748 750 753 755 756 758 759 760 761 763 764 765 766 767 768 769 770 772 773 774 775 776 777 778 780 780 781 781 781 781 781 782 782 782 783 783
692 692 692 693 694 693 691 692 693 693 693 693 693 694 695 696 695 695 695 695 695 696 697 698 699 699 700 701 702 704 705 707 709 711 713 715 720 724 726 725 727 730 732 734 735 737 739 740 742 744 746 748 750 752 754 755 756 758 759 760 761 762 763 765 766 767 768 770 771 772 773 774 775 777 778 779 779 779 780 780 780 780 781 781 782 783
689 689 688 688 689 689 688 688 689 689 690 689 689 689 691 693 693 693 692 692 692 693 694 695 696 696 697 698 699 701 702 704 705 707 710 713 717 721 722 723 724 727 729 731 733 735 736 738 739 741 743 745 747 749 751 752 754 755 756 757 758 760 761 762 764 765 767 768 769 770 771 772 773 775 776 777 777 778 778 778 779 779 780 780 781 782
686 685 683 684 685 685 683 684 685 685 686 686 686 686 687 688 690 690 690 689 690 690 691 692 693 693 694 695 696 698 699 700 702 704 707 710 714 718 719 720 722 724 726 728 730 732 733 735 737 738 741 743 745 746 748 750 751 752 753 755 756 757 759 760 762 763 765 766 767 768 769 770 772 773 774 775 775 776 776 777 777 778 779 780 781 782
682 681 680 681 682 681 679 680 681 682 683 683 684 683 683 683 685 687 688 688 688 687 687 688 689 690 690 691 693 694 696 697 698 700 703 707 711 714 715 717 720 722 723 725 727 729 730 732 734 736 738 740 742 743 745 747 748 750 751 752 753 755 756 758 760 761 763 764 765 766 767 768 770 771 772 773 774 774 775 776 776 777 778 779 780 781
677 677 676 678 678 678 676 676 677 678 679 680 681 680 680 680 681 683 685 685 685 685 685 685 686 686 687 688 689 690 692 694 695 697 700 704 708 711 713 715 718 719 720 721 723 725 727 729 731 733 735 737 739 740 742 744 746 747 748 750 751 753 754 756 758 759 761 762 763 765 765 766 768 769 770 771 772 773 774 774 775 776 777 778 779 780
672 672 673 674 674 674 674 673 673 674 676 677 678 678 677 677 678 679 680 681 682 683 683 683 683 684 684 685 686 687 689 691 693 695 698 702 705 708 710 713 715 716 717 718 720 722 724 726 728 730 732 734 736 737 739 741 743 745 746 747 749 750 752 753 755 757 759 760 762 763 764 765 766 767 769 770 771 772 772 773 774 775 776 777 778 779
668 668 669 670 670 671 671 670 669 670 673 674 675 675 675 675 676 676 677 678 679 680 681 681 681 681 682 682 683 685 687 689 691 693 696 700 703 705 708 710 712 713 714 715 718 720 721 723 724 726 729 731 733 734 735 738 740 742 743 745 746 748 749 751 753 754 756 758 760 761 762 763 764 765 767 768 769 770 771 772 773 774 775 776 777 778
663 663 664 665 665 667 667 666 666 667 669 670 672 672 673 674 674 674 675 675 676 677 678 679 679 679 679 680 681 683 685 686 688 690 693 697 700 703 705 707 709 710 712 713 715 716 718 720 721 723 725 728 729 731 732 735 737 739 741 743 744 746 747 749 750 752 754 755 757 759 760 761 762 763 765 766 768 769 770 771 772 773 774 775 776 777
658 659 659 659 660 661 662 662 662 663 665 667 668 669 669 670 671 672 672 672 672 672 674 675 676 677 677 678 680 681 683 684 685 687 690 693 696 699 702 704 705 707 709 711 712 713 715 716 718 720 722 724 726 728 729 731 734 736 738 740 742 743 745 746 748 749 751 753 755 757 758 759 760 762 763 765 766 768 769 770 771 772 773 774 775 776
652 654 655 655 655 655 656 656 658 660 662 663 664 665 666 666 667 668 668 667 667 668 670 670 672 673 675 676 677 679 680 682 684 685 688 690 693 696 699 700 702 704 707 708 709 710 712 713 715 717 719 721 723 724 725 728 730 733 736 738 739 741 742 744 745 747 749 751 753 755 756 757 758 760 762 763 765 766 768 769 770 771 772 773 774 775
646 648 649 650 650 650 651 651 654 656 658 659 660 661 661 660 661 662 662 662 663 664 664 665 667 669 671 673 674 676 678 679 681 683 685 688 691 693 695 697 699 702 704 706 707 708 709 710 712 714 716 718 719 720 722 724 727 730 732 734 736 738 740 741 743 744 746 748 751 752 754 755 756 758 760 762 763 765 766 768 769 770 771 772 773 774
640 641 643 644 645 645 645 647 650 652 652 653 653 654 653 655 656 657 656 657 658 659 659 661 663 664 666 668 670 673 675 676 677 679 682 685 687 689 691 693 695 698 700 703 705 706 706 708 709 711 713 714 715 716 718 720 723 726 728 731 733 735 737 738 740 742 744 746 748 750 751 753 754 756 758 760 762 763 765 767 768 769 770 771 772 773
635 635 637 638 639 639 640 642 643 645 644 645 645 646 648 650 652 653 653 653 654 655 657 659 660 661 662 664 666 668 670 673 674 676 678 680 682 684 687 689 691 693 696 699 701 702 704 706 707 709 710 711 713 713 715 716 719 722 725 727 729 731 733 735 737 739 741 743 745 747 749 750 752 754 756 758 760 762 764 765 766 768 769 770 771 772
632 630 630 630 631 632 634 635 636 637 637 639 641 643 646 647 648 648 648 649 651 653 655 657 658 659 660 660 661 664 666 669 671 673 674 676 678 680 683 685 687 689 692 695 697 699 701 703 705 706 708 709 710 711 712 713 715 718 721 724 726 728 730 732 734 736 739 741 743 745 746 748 750 752 754 756 758 760 762 764 765 766 767 769 770 771
631 627 623 622 623 625 627 629 630 631 632 635 637 640 642 642 641 642 643 645 647 650 653 655 657 658 658 657 658 660 662 665 667 668 670 672 674 676 678 681 684 686 689 691 693 696 698 700 701 703 704 705 706 708 709 711 713 715 718 721 723 725 727 730 732 734 737 739 742 743 744 746 748 750 752 755 757 758 760 762 763 765 766 767 769 770
630 624 618 616 616 618 620 622 624 625 627 630 632 634 635 636 637 637 639 641 645 648 650 651 653 655 656 656 656 656 658 660 663 665 667 669 670 672 674 677 680 682 684 687 690 692 694 696 698 699 700 702 703 705 707 709 710 713 716 718 720 723 725 727 729 732 735 737 739 741 742 745 747 749 751 753 755 757 758 760 761 763 764 766 767 768
628 623 617 613 611 611 614 616 618 619 622 626 627 628 630 632 634 635 636 638 641 643 645 647 648 649 650 652 652 651 653 657 659 662 664 665 666 668 671 673 675 678 680 683 686 688 690 692 693 695 696 698 700 703 705 706 708 710 713 716 718 720 722 724 727 729 732 735 737 738 740 743 745 747 748 751 753 755 756 758 760 761 763 764 766 767
626 622 617 611 607 606 609 610 611 613 617 620 622 624 627 629 631 632 633 634 636 638 640 642 643 643 644 645 645 646 649 652 656 659 661 662 663 665 668 670 673 675 678 680 683 685 687 688 690 692 693 695 698 700 702 704 706 708 711 714 716 718 720 722 724 727 729 731 733 735 738 740 742 744 746 748 750 753 754 756 758 760 761 763 764 765
625 621 616 610 605 603 603 603 604 606 609 612 616 620 622 624 626 628 630 631 633 634 635 637 638 638 639 640 641 643 645 649 653 656 657 659 660 662 664 667 669 672 674 677 679 681 683 685 688 690 691 693 695 697 700 702 703 705 708 711 713 715 717 719 722 724 726 728 730 733 735 738 740 742 744 746 748 750 752 754 756 758 760 761 763 764
623 618 613 610 606 601 597 597 598 600 602 607 612 615 617 619 622 624 625 628 629 631 632 633 633 633 635 637 638 639 641 645 649 652 654 657 658 660 661 663 666 668 671 674 676 678 680 683 685 687 689 690 692 694 696 699 700 702 705 708 711 713 715 717 720 722 724 726 728 730 733 736 738 740 742 744 746 748 750 752 754 756 758 760 761 763
619 614 610 609 604 598 592 591 592 594 597 602 606 608 610 614 617 619 621 623 625 626 627 627 628 630 632 634 634 634 637 640 644 648 652 655 656 657 658 660 663 665 668 671 673 676 678 680 682 684 685 687 689 691 693 695 698 700 702 705 708 710 713 715 718 720 722 724 725 728 730 733 736 738 740 742 744 746 748 750 752 754 756 758 760 761
615 610 607 605 601 595 590 588 588 590 592 595 598 600 604 608 610 613 616 618 620 620 622 623 626 630 632 632 632 633 635 637 640 644 648 650 652 653 655 657 660 662 665 667 670 673 676 678 680 681 683 684 686 688 690 693 695 697 699 702 705 708 711 714 716 719 720 722 724 726 728 731 733 736 738 740 743 745 746 748 750 752 754 756 758 759
611 607 604 600 596 592 589 586 584 585 588 590 592 595 599 602 605 607 610 613 615 617 620 624 628 630 630 630 630 632 633 635 638 642 645 646 647 650 653 655 657 660 662 664 667 670 673 676 678 679 681 682 683 685 687 690 692 694 696 699 703 706 709 711 714 717 718 720 722 724 726 729 731 734 736 739 741 743 745 747 749 751 753 755 756 758
606 603 600 596 592 589 586 582 580 580 582 585 588 592 595 598 601 604 607 610 613 616 619 623 625 626 626 627 628 630 630 632 634 638 641 643 645 648 650 652 655 657 659 662 665 668 671 674 676 678 679 680 682 683 684 687 689 691 693 696 700 703 706 709 712 714 716 718 720 721 724 726 729 732 734 737 739 741 743 745 747 749 751 753 755 757
600 597 595 592 589 585 583 580 577 575 577 580 584 588 592 596 599 602 605 607 609 611 615 618 620 621 622 624 626 627 628 630 631 634 637 640 643 645 648 650 653 655 658 660 663 667 670 672 675 676 678 679 680 681 682 684 686 689 691 694 697 700 704 707 709 712 714 715 717 719 721 724 727 730 732 735 737 739 741 743 746 748 750 752 754 756
593 590 588 586 584 582 579 577 574 572 572 575 579 584 589 593 597 599 599 600 601 604 608 612 615 617 620 622 623 623 625 627 629 631 634 637 640 643 645 648 650 653 656 659 662 665 668 670 673 674 676 677 679 680 681 682 684 686 688 691 695 698 701 704 707 709 711 713 715 717 719 722 725 728 730 733 735 737 740 742 745 747 749 751 753 755
586 583 580 578 577 576 575 574 571 569 568 571 575 579 584 589 593 594 593 594 596 600 603 606 609 613 616 617 618 619 622 624 625 627 631 634 637 639 641 645 647 650 654 658 661 664 667 669 671 673 674 675 677 679 680 681 682 684 686 689 693 696 700 703 705 707 709 711 713 715 717 720 723 726 728 731 733 735 738 741 743 746 748 750 751 753
579 576 573 571 570 569 570 570 567 565 565 567 571 575 579 584 587 589 590 592 595 597 599 600 603 607 610 613 616 618 620 621 622 624 628 632 634 636 638 642 645 647 650 656 661 665 667 668 670 671 673 674 675 677 680 681 683 683 685 687 691 695 698 701 703 705 706 708 710 712 715 718 721 724 726 728 731 734 736 739 742 744 746 748 750 751
574 571 567 565 563 563 564 565 563 561 562 564 567 571 574 578 582 585 589 592 593 594 595 597 600 603 607 611 615 618 618 618 619 622 625 629 631 633 636 639 641 643 646 653 660 665 667 667 668 669 671 673 674 676 678 681 683 684 685 687 691 694 697 699 701 703 704 706 708 710 712 716 719 721 724 726 729 732 735 737 740 742 744 746 748 749
570 567 564 560 558 557 558 559 559 558 559 561 564 567 570 574 577 582 586 588 590 591 593 595 597 599 602 606 610 612 612 614 616 619 622 625 628 630 633 636 638 639 641 646 653 660 664 666 667 667 669 671 673 674 676 678 681 682 684 687 691 694 697 699 700 702 703 704 706 708 710 714 717 719 722 724 727 730 733 735 738 740 742 744 746 748
566 563 560 557 554 553 552 553 553 554 556 558 561 563 566 569 572 576 580 582 585 587 590 592 594 595 597 599 600 602 604 608 612 615 619 622 625 628 630 632 635 637 639 641 645 650 657 662 665 666 667 669 671 673 674 676 678 680 682 685 689 693 696 699 701 703 704 705 705 707 709 712 715 717 720 722 725 728 731 733 735 737 739 742 744 746
562 559 556 554 551 548 546 546 547 549 551 554 556 558 561 564 568 571 574 577 579 582 585 588 590 591 592 593 595 596 599 602 605 609 614 619 623 626 628 630 633 636 638 641 643 646 650 655 660 664 667 667 669 670 672 674 676 677 679 682 686 690 695 698 701 703 704 705 706 708 710 712 714 716 718 721 723 726 729 731 733 735 737 739 742 744
557 555 552 549 546 543 541 540 542 543 546 548 551 554 557 560 563 567 570 572 574 576 579 582 584 586 588 590 592 594 596 598 600 604 610 615 619 622 625 628 630 633 637 641 644 646 649 652 657 662 665 667 668 669 671 672 674 675 676 679 683 687 692 695 698 701 703 704 706 708 710 712 714 716 718 720 722 725 727 730 732 734 736 738 740 742
552 550 547 544 541 537 535 535 536 538 540 543 546 549 552 555 559 562 565 567 569 571 574 576 578 580 582 584 587 590 592 594 597 601 606 611 614 618 622 625 626 629 634 637 641 644 647 650 653 658 662 666 668 668 669 670 672 673 675 677 680 684 688 691 695 698 700 702 704 705 708 710 713 715 717 719 721 723 726 729 731 733 735 737 739 740
547 544 541 538 535 532 529 529 529 532 535 538 540 544 547 551 554 557 560 562 565 567 570 572 574 575 576 578 580 584 587 589 592 597 602 606 610 614 618 620 622 624 628 632 636 640 643 646 650 654 658 663 666 667 668 669 671 672 674 676 679 682 685 688 691 694 697 699 701 703 705 707 710 712 715 717 719 722 725 728 730 732 734 736 738 740
542 538 535 532 529 525 523 522 523 526 529 532 535 539 542 546 550 552 555 558 560 563 566 569 571 572 574 575 577 579 582 585 588 593 598 602 606 609 612 615 617 620 623 627 631 635 639 643 648 653 656 658 660 663 666 668 670 671 673 674 677 681 684 687 689 691 694 696 698 699 702 704 707 710 713 715 718 721 725 727 730 731 733 735 737 739
536 532 529 526 523 520 517 517 517 519 522 526 530 533 537 541 545 548 551 553 556 559 563 566 568 570 572 573 576 578 581 582 585 589 594 599 602 605 607 611 614 616 618 621 625 630 635 640 645 649 652 654 656 658 661 664 666 668 670 672 675 678 681 684 687 690 692 693 695 697 699 702 705 708 711 714 717 720 724 727 729 730 732 734 736 739
529 526 522 519 517 514 512 511 511 513 516 520 524 528 533 537 541 544 547 550 552 555 559 562 565 567 570 572 574 577 578 580 582 586 590 594 597 600 603 606 609 613 616 619 622 626 630 633 637 641 645 650 654 656 658 660 662 664 667 671 675 678 680 682 685 688 690 692 694 696 698 700 703 705 708 711 713 717 721 724 726 728 730 732 735 737
523 519 516 513 511 509 508 506 506 508 512 517 521 525 530 534 538 542 544 547 550 553 557 560 563 565 567 570 572 574 575 577 579 582 585 589 592 595 598 601 604 609 613 617 620 623 626 629 632 634 638 643 648 653 656 658 659 660 664 669 673 676 678 680 683 685 688 690 692 693 695 698 701 703 705 708 710 713 717 720 723 725 727 729 732 735
518 514 510 508 506 505 504 504 504 505 509 513 518 522 526 530 535 538 542 545 548 552 556 559 561 563 565 567 570 571 573 575 577 579 582 585 588 591 594 597 600 605 610 614 617 620 623 626 629 632 636 639 643 647 651 653 655 657 660 663 665 668 672 676 680 683 686 689 690 692 693 696 699 701 703 706 708 711 715 718 720 723 725 728 729 731
516 510 505 502 502 501 501 501 502 503 506 510 514 518 521 525 529 533 537 541 545 549 552 555 558 560 562 565 567 569 571 573 575 577 579 582 585 588 591 594 597 601 606 611 615 618 620 623 625 629 632 635 640 644 648 650 653 655 657 659 661 664 669 673 676 679 683 686 689 691 692 694 697 699 701 704 707 711 714 717 720 722 724 727 729 730
513 507 501 498 497 497 498 498 499 500 503 506 510 513 517 521 525 529 533 537 541 545 548 551 553 555 559 562 565 568 570 572 574 576 578 580 583 586 589 591 594 598 602 607 612 616 618 621 623 625 627 630 634 639 644 648 651 654 656 657 659 663 668 671 673 676 680 683 686 689 691 693 695 697 699 702 706 710 714 717 720 721 723 725 727 730
510 504 499 495 492 493 494 495 495 495 499 502 506 510 514 518 521 525 530 535 538 542 545 547 550 553 557 561 564 567 570 572 574 576 577 580 582 585 587 590 592 595 598 602 607 612 616 619 621 623 625 628 631 635 639 643 648 651 653 655 655 656 659 662 667 672 677 681 684 687 689 691 693 695 698 701 705 709 713 716 718 720 722 724 726 728
507 501 496 491 488 488 489 489 489 491 495 499 503 507 511 515 519 523 528 532 536 539 542 544 548 552 556 559 562 565 569 572 574 576 578 580 583 585 587 589 591 593 596 598 601 605 610 615 618 621 624 627 629 632 636 640 644 648 651 653 655 656 656 658 661 666 672 678 682 685 687 688 690 693 697 701 705 709 712 714 717 719 721 723 725 728
504 498 491 487 484 482 482 483 485 488 492 496 500 504 508 512 516 520 525 528 532 536 539 542 545 549 552 556 560 564 567 571 573 575 578 580 583 585 587 589 591 593 596 598 600 602 604 607 611 616 622 626 629 631 633 636 640 644 648 651 654 657 659 661 663 665 668 673 678 682 684 686 689 692 696 700 704 708 711 713 715 718 720 722 724 726
501 495 488 482 479 477 477 479 482 485 490 493 497 501 505 510 514 518 522 525 529 532 536 540 543 546 549 553 557 561 565 568 571 574 576 579 582 584 587 589 591 594 597 599 602 603 605 606 608 612 616 622 627 631 634 635 637 640 644 647 650 654 658 661 663 664 667 670 674 678 681 684 688 691 695 699 703 707 710 713 715 717 719 721 723 724
499 493 487 481 476 474 473 475 478 482 486 491 495 499 503 507 510 515 519 522 526 530 534 538 541 543 547 550 554 557 560 564 568 571 574 577 579 582 585 588 591 594 597 599 601 604 606 609 611 612 614 617 621 627 632 635 637 638 640 642 646 650 655 658 661 664 667 670 672 675 678 681 685 689 693 698 702 706 709 711 714 716 718 719 721 723
497 492 487 482 476 472 470 472 475 479 484 488 493 497 501 505 508 511 515 519 523 527 531 535 538 541 545 549 552 555 558 561 565 568 571 574 576 579 583 586 589 593 596 598 601 603 606 609 612 615 617 618 618 621 627 631 635 637 639 641 644 647 652 656 660 664 667 669 672 674 677 679 682 685 689 695 701 705 708 710 713 715 717 718 720 722
496 492 487 483 478 473 470 470 472 476 481 485 490 495 499 503 506 509 512 516 520 524 527 530 534 538 542 546 550 553 556 559 563 566 569 571 574 577 580 584 587 591 595 599 601 604 607 610 612 615 618 621 622 622 624 627 632 636 640 643 644 646 649 655 659 663 665 668 671 674 677 680 683 685 689 693 698 703 707 710 712 714 716 717 719 721
496 492 488 484 480 476 472 470 471 474 478 483 488 492 497 502 505 509 512 515 518 522 525 528 531 535 539 543 546 550 552 556 560 563 567 569 571 574 577 580 584 588 593 597 601 604 607 612 616 620 621 623 625 625 625 625 628 634 639 643 644 646 649 654 658 662 664 667 669 672 676 680 683 686 689 692 697 702 706 709 711 713 715 716 718 720